Lufkin, TX

6:12 AM CDT on May 27, 2017 (GMT -0500)
Angelina County

Weather History for KLFK - April, 2013

Change the Weather History Date:

Tuesday, April 23, 2013

  Actual Average Record
Temperature  
Mean Temperature 70 °F 68 °F  
Max Temperature 83 °F 80 °F 91 °F (1999)
Min Temperature 56 °F 57 °F 40 °F (1907)
Degree Days  
Heating Degree Days 0 1  
Month to date heating degree days 84 63  
Since 1 July heating degree days 1581 1907  
Cooling Degree Days 5 5  
Month to date cooling degree days 89 80  
Year to date cooling degree days 156 140  
Growing Degree Days 19 (Base 50)    
Moisture  
Dew Point 59 °F    
Average Humidity 74    
Maximum Humidity 97    
Minimum Humidity 51    
Precipitation  
Precipitation 0.00 in 0.11 in 1.51 in (1948)
Month to date precipitation 2.19 2.29  
Year to date precipitation 11.54 14.12  
Snow  
Snow 0.00 in - - ()
Month to date snowfall 0.0  
Since 1 July snowfall 0.0  
Snow Depth -    
Sea Level Pressure  
Sea Level Pressure 29.96 in    
Wind  
Wind Speed 8 mph (SSE)    
Max Wind Speed 14 mph    
Max Gust Speed 21 mph    
Visibility 7 miles    
Events Fog    
T = Trace of Precipitation, MM = Missing Value Source: NWS Daily Summary

Daily Weather History Graph

Daily Weather History Graph

Search for Another Location

Airport or City:

Trip Planner

Search our weather history database for the weather conditions in past years. The results will help you decide how hot, cold, wet, or windy it might be!

Date:

Astronomy

Apr. 23, 2013 Rise Set
Actual Time 6:41 AM CDT 7:53 PM CDT
Civil Twilight 6:16 AM CDT 8:18 PM CDT
Nautical Twilight 5:46 AM CDT 8:48 PM CDT
Astronomical Twilight 5:15 AM CDT 9:19 PM CDT
Moon 5:55 PM CDT (4/23) 5:01 AM CDT (4/23)
Length of Visible Light 14h 01m
Length of Day
13h 11m
Waxing Gibbous, 94% of the Moon is Illuminated
Apr 23
Waxing Gibbous
Apr 25
Full
May 2
Last Quarter
May 9
New
May 17
First Quarter

Hourly Weather History & Observations

Time (CDT) Temp. Heat Index Dew Point Humidity Pressure Visibility Wind Dir Wind Speed Gust Speed Precip Events Conditions
12:53 AM 60.1 °F - 55.0 °F 83% 29.96 in 10.0 mi Calm Calm - N/A   Clear
1:53 AM 57.9 °F - 55.0 °F 90% 29.96 in 10.0 mi ESE 3.5 mph - N/A   Clear
2:53 AM 57.0 °F - 54.0 °F 89% 29.94 in 8.0 mi ESE 4.6 mph - N/A   Clear
4:07 AM 57.2 °F - 55.4 °F 94% 29.95 in 6.0 mi SE 5.8 mph - N/A   Mostly Cloudy
4:20 AM 57.2 °F - 55.4 °F 94% 29.95 in 6.0 mi SE 6.9 mph - N/A   Overcast
4:35 AM 59.0 °F - 57.2 °F 94% 29.94 in 1.8 mi SSE 8.1 mph - N/A   Overcast
4:48 AM 59.0 °F - 57.2 °F 94% 29.94 in 0.5 mi SSE 8.1 mph - N/A Fog Fog
4:53 AM 59.0 °F - 57.2 °F 94% 29.95 in 0.5 mi SSE 6.9 mph - N/A Fog Fog
5:15 AM 59.0 °F - 57.2 °F 94% 29.94 in 1.8 mi SSE 6.9 mph - N/A   Overcast
5:20 AM 60.8 °F - 57.2 °F 88% 29.94 in 3.0 mi SSE 6.9 mph - N/A   Overcast
5:29 AM 60.8 °F - 57.2 °F 88% 29.94 in 1.8 mi SSE 6.9 mph - N/A   Overcast
5:45 AM 60.8 °F - 57.2 °F 88% 29.94 in 0.8 mi SSE 5.8 mph - N/A   Overcast
5:53 AM 60.1 °F - 57.9 °F 93% 29.93 in 0.8 mi South 8.1 mph - N/A   Overcast
6:10 AM 60.8 °F - 57.2 °F 88% 29.94 in 1.2 mi SSE 9.2 mph - N/A   Overcast
6:21 AM 60.8 °F - 57.2 °F 88% 29.94 in 2.5 mi SSE 9.2 mph - N/A   Overcast
6:36 AM 60.8 °F - 57.2 °F 88% 29.94 in 3.0 mi SSE 8.1 mph - N/A   Overcast
7:31 AM 60.8 °F - 59.0 °F 94% 29.96 in 2.5 mi South 5.8 mph - N/A   Overcast
7:40 AM 60.8 °F - 59.0 °F 94% 29.97 in 3.0 mi SSE 6.9 mph - N/A   Overcast
7:53 AM 61.0 °F - 59.0 °F 93% 29.96 in 4.0 mi South 5.8 mph - N/A   Overcast
8:35 AM 62.6 °F - 60.8 °F 94% 29.98 in 8.0 mi South 6.9 mph - N/A   Overcast
8:53 AM 64.0 °F - 61.0 °F 90% 29.97 in 10.0 mi SSE 8.1 mph - N/A   Overcast
9:13 AM 64.4 °F - 60.8 °F 88% 29.99 in 10.0 mi SSE 8.1 mph - N/A   Overcast
9:35 AM 66.2 °F - 60.8 °F 83% 30.00 in 10.0 mi Variable 4.6 mph - N/A   Overcast
9:46 AM 66.2 °F - 62.6 °F 88% 30.00 in 10.0 mi South 5.8 mph - N/A   Overcast
9:53 AM 66.9 °F - 62.1 °F 84% 30.00 in 10.0 mi Variable 3.5 mph - N/A   Overcast
10:32 AM 69.8 °F - 62.6 °F 78% 30.03 in 10.0 mi Calm Calm - N/A   Overcast
10:53 AM 71.1 °F - 62.1 °F 73% 30.02 in 10.0 mi SW 6.9 mph - N/A   Overcast
11:07 AM 73.4 °F - 62.6 °F 69% 30.03 in 10.0 mi SSW 5.8 mph - N/A   Overcast
11:53 AM 75.9 °F - 62.1 °F 62% 30.01 in 10.0 mi SW 9.2 mph - N/A   Overcast
12:53 PM 75.9 °F - 62.1 °F 62% 29.98 in 10.0 mi SSE 6.9 mph - N/A   Overcast
1:53 PM 78.8 °F - 62.6 °F 57% 29.96 in 10.0 mi South 6.9 mph - N/A   Mostly Cloudy
2:53 PM 81.0 °F 81.7 °F 61.0 °F 50% 29.94 in 10.0 mi SSW 6.9 mph - N/A   Overcast
3:53 PM 80.1 °F 81.1 °F 61.0 °F 52% 29.91 in 10.0 mi South 9.2 mph - N/A   Overcast
4:53 PM 80.1 °F 81.2 °F 62.1 °F 54% 29.89 in 10.0 mi South 12.7 mph 18.4 mph N/A   Mostly Cloudy
5:53 PM 79.0 °F - 63.0 °F 58% 29.90 in 10.0 mi South 9.2 mph - N/A   Mostly Cloudy
6:53 PM 77.0 °F - 64.0 °F 64% 29.90 in 10.0 mi SSE 10.4 mph - N/A   Partly Cloudy
7:53 PM 73.9 °F - 64.9 °F 73% 29.91 in 10.0 mi SSE 4.6 mph - N/A   Overcast
8:53 PM 73.0 °F - 64.9 °F 76% 29.93 in 10.0 mi SSE 4.6 mph - N/A   Overcast
9:53 PM 70.0 °F - 63.0 °F 78% 29.97 in 10.0 mi NW 10.4 mph - N/A   Overcast
10:04 PM 69.8 °F - 60.8 °F 73% 29.98 in 10.0 mi NW 9.2 mph - N/A   Overcast
10:53 PM 66.0 °F - 57.0 °F 73% 29.99 in 10.0 mi NNW 8.1 mph - N/A   Overcast
11:42 PM 62.6 °F - 55.4 °F 77% 30.01 in 10.0 mi NW 10.4 mph - N/A   Overcast
11:53 PM 63.0 °F - 54.0 °F 72% 30.01 in 10.0 mi NW 12.7 mph - N/A   Overcast